Weather History for Edinburgh Airport, United Kingdom

Change the Weather History Date:

Thursday, February 21, 2013

  Actual Average Record
Temperature  
Mean Temperature 32 °F -  
Max Temperature 39 °F 47 °F 53 °F (2012)
Min Temperature 26 °F 34 °F 26 °F (2013)
Degree Days  
Heating Degree Days 32    
Moisture  
Dew Point 24 °F    
Average Humidity 69    
Maximum Humidity 86    
Minimum Humidity 56    
Precipitation  
Precipitation 0.00 in 0.06 in - ()
Sea Level Pressure  
Sea Level Pressure 30.31 in    
Wind  
Wind Speed 7 mph ()    
Max Wind Speed 14 mph    
Max Gust Speed -    
Visibility 6.2 miles    
Events      
Averages and records for this station are not official NWS values.
T = Trace of Precipitation, MM = Missing Value Source: Averaged Metar Reports

Daily Weather History Graph

Daily Weather History Graph

Search for Another Location

Airport:

Trip Planner

Search our weather history database for the weather conditions in past years. The results will help you decide how hot, cold, wet, or windy it might be!

Date:

Astronomy

Feb. 21, 2013 Rise Set
Actual Time 7:24 AM GMT 5:30 PM GMT
Civil Twilight 6:46 AM GMT 6:08 PM GMT
Nautical Twilight 6:03 AM GMT 6:51 PM GMT
Astronomical Twilight 5:20 AM GMT 7:34 PM GMT
Moon 1:01 PM GMT (2/21) 4:50 AM GMT (2/21)
Length of Visible Light 11h 22m
Length of Day
10h 06m
Waxing Gibbous, 82% of the Moon is Illuminated
Feb 21
Waxing Gibbous
Feb 25
Full
Mar 4
Last Quarter
Mar 11
New
Mar 19
First Quarter

Hourly Weather History & Observations

Time (GMT) Temp. Windchill Dew Point Humidity Pressure Visibility Wind Dir Wind Speed Gust Speed Precip Events Conditions
12:20 AM 32.0 °F 24.8 °F 24.8 °F 75% 30.33 in - ESE 8.1 mph - N/A   Clear
12:50 AM 32.0 °F 24.8 °F 24.8 °F 75% 30.33 in - East 8.1 mph - N/A   Clear
1:20 AM 32.0 °F 24.8 °F 24.8 °F 75% 30.33 in - East 8.1 mph - N/A   Clear
1:50 AM 30.2 °F 24.3 °F 24.8 °F 80% 30.33 in - East 5.8 mph - N/A   Clear
2:20 AM 30.2 °F 25.4 °F 24.8 °F 80% 30.33 in - ENE 4.6 mph - N/A   Clear
2:50 AM 28.4 °F 22.2 °F 23.0 °F 80% 30.33 in 6.2 mi East 5.8 mph - N/A   Unknown
3:20 AM 28.4 °F 21.2 °F 24.8 °F 86% 30.30 in 6.2 mi East 6.9 mph - N/A   Unknown
3:50 AM 28.4 °F 23.3 °F 23.0 °F 80% 30.30 in 6.2 mi ENE 4.6 mph - N/A   Unknown
4:20 AM 28.4 °F 24.6 °F 24.8 °F 86% 30.30 in - NE 3.5 mph - N/A   Clear
4:50 AM 28.4 °F 24.6 °F 23.0 °F 80% 30.30 in 6.2 mi ENE 3.5 mph - N/A   Partly Cloudy
5:20 AM 28.4 °F 23.3 °F 23.0 °F 80% 30.30 in - ESE 4.6 mph - N/A   Clear
5:50 AM 26.6 °F 20.0 °F 23.0 °F 86% 30.30 in 6.2 mi East 5.8 mph - N/A   Partly Cloudy
6:20 AM 26.6 °F 19.1 °F 23.0 °F 86% 30.30 in 6.2 mi East 6.9 mph - N/A   Partly Cloudy
6:50 AM 28.4 °F 22.2 °F 23.0 °F 80% 30.33 in 6.2 mi East 5.8 mph - N/A   Partly Cloudy
7:20 AM 26.6 °F - 23.0 °F 86% 30.33 in 6.2 mi Variable 2.3 mph - N/A   Partly Cloudy
7:50 AM 30.2 °F 23.4 °F 24.8 °F 80% 30.33 in 6.2 mi East 6.9 mph - N/A   Partly Cloudy
8:20 AM 30.2 °F 23.4 °F 24.8 °F 80% 30.33 in 6.2 mi ENE 6.9 mph - N/A   Partly Cloudy
8:50 AM 32.0 °F 26.4 °F 26.6 °F 80% 30.33 in 6.2 mi ENE 5.8 mph - N/A   Partly Cloudy
9:20 AM 33.8 °F 28.6 °F 28.4 °F 81% 30.33 in 6.2 mi ENE 5.8 mph - N/A   Partly Cloudy
9:50 AM 35.6 °F 29.9 °F 26.6 °F 70% 30.33 in 6.2 mi East 6.9 mph - N/A   Partly Cloudy
10:20 AM 35.6 °F 29.2 °F 26.6 °F 70% 30.33 in 6.2 mi East 8.1 mph - N/A   Mostly Cloudy
10:50 AM 37.4 °F 29.8 °F 26.6 °F 65% 30.33 in 6.2 mi ESE 11.5 mph - N/A   Mostly Cloudy
11:20 AM 37.4 °F 30.3 °F 26.6 °F 65% 30.33 in 6.2 mi ESE 10.4 mph - N/A   Mostly Cloudy
11:50 AM 37.4 °F 29.3 °F 24.8 °F 60% 30.33 in 6.2 mi SE 12.7 mph - N/A   Mostly Cloudy
12:20 PM 37.4 °F 28.9 °F 24.8 °F 60% 30.33 in 6.2 mi SE 13.8 mph - N/A   Mostly Cloudy
12:50 PM 37.4 °F 29.3 °F 24.8 °F 60% 30.33 in 6.2 mi ESE 12.7 mph - N/A   Mostly Cloudy
1:20 PM 37.4 °F 29.8 °F 24.8 °F 60% 30.30 in 6.2 mi ESE 11.5 mph - N/A   Mostly Cloudy
1:50 PM 39.2 °F 32.0 °F 24.8 °F 56% 30.30 in 6.2 mi ESE 11.5 mph - N/A   Mostly Cloudy
2:20 PM 39.2 °F 32.0 °F 24.8 °F 56% 30.30 in 6.2 mi SSE 11.5 mph - N/A   Mostly Cloudy
2:50 PM 37.4 °F 31.4 °F 24.8 °F 60% 30.30 in 6.2 mi SSE 8.1 mph - N/A   Mostly Cloudy
3:20 PM 37.4 °F 29.8 °F 24.8 °F 60% 30.30 in 6.2 mi SSE 11.5 mph - N/A   Mostly Cloudy
3:50 PM 37.4 °F 31.4 °F 24.8 °F 60% 30.30 in 6.2 mi SSE 8.1 mph - N/A   Mostly Cloudy
4:20 PM 37.4 °F 31.4 °F 24.8 °F 60% 30.30 in 6.2 mi SE 8.1 mph - N/A   Mostly Cloudy
4:50 PM 37.4 °F 30.8 °F 23.0 °F 56% 30.30 in 6.2 mi SSE 9.2 mph - N/A   Mostly Cloudy
5:20 PM 35.6 °F 28.6 °F 24.8 °F 65% 30.30 in 6.2 mi ESE 9.2 mph - N/A   Mostly Cloudy
5:50 PM 35.6 °F 27.5 °F 23.0 °F 60% 30.30 in 6.2 mi SE 11.5 mph - N/A   Mostly Cloudy
6:20 PM 35.6 °F 28.6 °F 23.0 °F 60% 30.30 in 6.2 mi SSE 9.2 mph - N/A   Mostly Cloudy
6:50 PM 35.6 °F 29.2 °F 23.0 °F 60% 30.30 in 6.2 mi SSE 8.1 mph - N/A   Mostly Cloudy
7:20 PM 35.6 °F 29.9 °F 23.0 °F 60% 30.30 in 6.2 mi SE 6.9 mph - N/A   Mostly Cloudy
7:50 PM 35.6 °F 28.6 °F 23.0 °F 60% 30.30 in 6.2 mi SE 9.2 mph - N/A   Mostly Cloudy
8:20 PM 35.6 °F 28.6 °F 23.0 °F 60% 30.30 in 6.2 mi SE 9.2 mph - N/A   Mostly Cloudy
8:50 PM 35.6 °F 29.9 °F 23.0 °F 60% 30.30 in 6.2 mi ESE 6.9 mph - N/A   Mostly Cloudy
9:20 PM 35.6 °F 30.7 °F 24.8 °F 65% 30.30 in 6.2 mi ESE 5.8 mph - N/A   Overcast
9:50 PM 35.6 °F 28.6 °F 24.8 °F 65% 30.30 in 6.2 mi ESE 9.2 mph - N/A   Overcast
10:20 PM 35.6 °F 27.5 °F 23.0 °F 60% 30.30 in 6.2 mi ESE 11.5 mph - N/A   Overcast
10:50 PM 35.6 °F 27.5 °F 23.0 °F 60% 30.30 in 6.2 mi ESE 11.5 mph - N/A   Overcast
11:20 PM 33.8 °F 27.0 °F 23.0 °F 65% 30.30 in 6.2 mi SE 8.1 mph - N/A   Overcast
11:50 PM 33.8 °F 27.0 °F 23.0 °F 65% 30.30 in 6.2 mi SE 8.1 mph - N/A   Overcast